Theta_e
330 330 329 330 329 327 326 326 322 317 319 321 322 328 330 329 327 326 327 318 311 310 309 311 312 313 313 314 314 316 318 320 324 321 315 310 308 305
315 325 330 330 330 329 326 326 325 323 319 324 324 326 328 326 323 326 325 314 307 307 305 304 305 306 306 308 309 311 314 316 314 310 308 306 304 302
310 311 313 322 330 330 329 328 326 325 322 326 327 324 324 325 323 322 318 317 310 303 302 302 302 302 304 305 306 307 308 308 307 305 304 302 300 299
306 308 310 315 315 313 324 329 329 330 327 324 327 324 323 323 322 319 318 315 314 304 301 302 301 300 300 300 301 301 301 301 300 300 299 297 295 295
304 304 304 310 312 312 313 318 317 319 327 326 326 328 324 318 312 311 310 307 308 306 301 301 300 300 299 299 298 297 297 296 295 294 293 292 291 291
303 304 306 306 308 310 311 311 311 312 315 316 321 325 320 313 314 310 306 307 302 304 302 299 299 299 298 297 296 296 295 294 293 292 291 290 290 290
301 303 306 305 301 300 307 309 308 308 310 311 312 312 307 305 309 309 310 301 298 298 296 296 297 296 296 296 296 295 293 292 292 291 290 290 290 290
299 301 303 302 303 298 296 295 299 307 307 306 308 306 308 307 306 305 295 293 294 294 293 290 293 292 292 292 293 292 291 291 290 290 290 289 290 289
297 299 301 302 297 299 297 296 298 295 295 303 304 306 305 305 303 301 300 299 296 292 291 286 288 286 289 291 291 291 290 290 289 289 289 289 289 289
293 295 295 295 295 294 294 296 297 299 299 300 300 300 300 300 301 302 301 294 290 290 291 285 285 284 286 288 290 290 289 289 289 289 289 289 289 290
291 292 292 292 292 291 292 292 292 290 294 294 292 292 291 291 292 293 287 289 286 286 286 285 283 282 283 284 287 289 288 288 289 289 288 289 290 290
288 290 289 290 289 289 290 290 287 287 288 289 289 290 290 292 291 294 293 291 286 285 286 286 283 283 280 283 284 285 286 288 288 288 289 291 290 286
285 286 289 289 289 289 289 287 287 287 287 287 288 288 287 286 286 286 288 291 287 286 287 286 283 283 282 280 282 284 285 285 285 285 288 288 287 285
284 285 286 287 288 287 287 287 287 286 286 285 286 287 287 286 286 285 285 285 286 287 287 287 285 284 281 280 279 283 284 284 284 282 282 284 285 285
285 285 286 287 286 285 286 286 283 282 284 284 285 286 286 287 285 285 285 286 286 286 287 287 286 285 284 281 280 281 281 281 282 280 280 279 279 280
286 287 286 284 285 284 284 285 285 285 286 286 287 287 286 285 285 285 285 285 285 284 286 287 286 286 283 283 283 281 281 278 280 279 279 279 280 280
285 286 285 285 284 284 284 285 285 285 285 286 286 286 285 285 285 285 285 284 283 283 283 284 285 285 285 284 280 281 279 278 279 279 278 277 278 279
285 284 283 284 283 284 284 284 285 284 285 286 286 287 285 285 284 284 284 284 283 283 282 283 283 282 282 283 284 279 279 278 279 279 279 276 276 279
283 283 284 284 284 285 285 284 284 285 286 286 286 286 286 285 284 284 284 284 283 282 283 284 283 282 278 276 281 284 279 278 278 277 277 277 276 277
284 283 284 285 285 285 285 285 285 285 285 285 286 286 285 285 284 283 284 283 282 282 282 283 283 282 280 278 277 279 282 278 277 276 276 278 279 281
284 284 285 285 285 285 286 286 285 285 285 286 286 285 285 285 284 284 283 283 283 283 281 280 281 283 282 282 277 276 279 282 280 278 278 277 276 277
284 284 284 285 285 285 285 286 285 285 285 286 286 285 285 285 283 283 283 282 283 282 279 281 283 282 281 278 276 276 278 280 282 283 283 281 277 274
283 284 284 284 285 285 285 285 285 285 286 286 285 285 285 284 284 283 283 283 281 280 280 280 280 280 279 278 277 276 277 278 278 278 279 282 282 281
Wind_Speed
14 15 14 13 10 10 11 10 11 12 14 6 5 6 5 5 7 6 6 10 10 9 10 9 8 7 6 7 9 10 11 12 11 14 15 13 10 5
15 17 15 12 12 11 11 10 10 12 15 8 9 6 6 4 5 6 6 7 7 5 7 7 5 2 2 5 8 10 9 12 19 19 16 13 8 3
5 10 16 22 9 11 9 10 11 9 13 11 10 6 6 6 4 3 4 6 5 9 11 10 7 4 3 4 7 12 15 17 19 17 14 11 6 1
13 9 14 11 17 19 11 12 12 11 12 17 12 6 8 6 5 6 5 4 5 6 7 8 7 9 12 12 11 13 15 15 16 15 12 8 4 2
8 11 10 13 13 9 13 10 9 7 8 11 11 6 4 3 3 3 3 5 2 5 7 9 10 13 16 12 15 16 15 15 14 12 10 8 4 1
10 9 9 7 10 11 8 9 9 9 9 7 8 7 3 1 3 3 5 4 4 2 3 2 11 14 16 15 15 15 14 14 14 12 9 6 4 3
7 8 6 8 12 8 6 7 8 9 9 4 5 3 0 2 2 2 3 2 4 2 2 2 3 5 9 12 13 14 13 14 11 9 8 6 6 5
9 7 8 9 10 13 9 10 10 7 6 3 1 4 2 3 3 3 1 2 1 1 3 2 5 2 4 4 11 13 12 11 11 8 6 6 6 5
10 9 9 9 11 11 13 12 6 5 8 2 3 4 2 2 3 3 0 1 3 3 5 2 1 3 4 6 11 11 9 10 9 9 8 8 7 8
10 9 10 10 8 11 11 10 8 7 6 2 3 4 5 4 3 1 1 4 4 2 3 4 0 1 3 3 14 13 10 9 8 7 6 7 7 6
7 7 8 10 11 14 9 11 10 9 6 8 5 6 6 7 5 1 2 4 2 2 2 4 2 2 1 1 3 8 8 7 5 6 4 6 6 11
8 8 8 7 10 12 10 8 11 10 11 12 8 5 3 4 5 4 2 3 2 2 5 7 5 5 3 1 1 2 1 3 6 5 3 10 12 4
7 7 5 7 10 13 12 7 8 8 9 8 9 7 5 2 1 2 4 4 4 3 4 4 3 3 3 3 2 3 3 2 4 6 12 9 9 6
10 8 8 15 18 16 10 12 13 9 6 8 8 6 5 4 4 2 1 1 1 3 8 4 5 4 4 3 3 3 3 4 5 5 5 9 14 16
9 14 20 20 18 12 11 13 10 5 6 8 8 6 3 4 4 1 2 3 4 4 3 3 5 6 3 4 6 5 6 2 5 5 5 5 4 3
11 10 11 13 14 12 10 7 4 5 7 7 6 6 2 3 3 3 2 1 2 3 6 3 6 5 3 5 7 8 6 4 5 5 5 5 5 4
14 10 11 9 10 8 6 7 6 5 6 6 5 5 3 3 3 2 2 3 1 3 3 4 7 8 6 8 7 7 8 8 6 6 6 6 6 4
10 11 11 10 9 8 8 8 6 7 7 6 5 5 4 4 4 3 2 2 4 5 6 6 8 9 8 10 9 9 7 6 6 6 5 6 6 5
11 11 9 9 9 8 7 7 8 7 6 5 5 5 4 4 6 4 3 4 5 6 6 7 6 7 9 7 4 9 8 6 7 6 5 5 5 4
8 9 9 9 9 8 8 7 7 6 6 5 6 5 4 5 5 6 6 5 6 6 6 4 4 5 9 7 7 7 13 8 7 8 7 7 6 9
8 8 8 9 9 9 8 8 7 7 6 5 5 5 5 6 6 6 6 9 8 7 8 6 7 14 10 9 9 8 7 15 9 8 5 5 4 2
8 9 8 9 8 9 8 8 7 5 6 6 6 5 6 6 6 7 7 8 7 8 10 9 9 8 9 11 11 11 8 8 8 7 5 4 3 3
11 10 8 9 8 9 8 7 7 7 6 5 4 5 6 6 6 6 8 7 10 11 11 9 8 9 10 10 12 8 11 9 6 8 9 18 20 20
Wind_Direction
243 235 231 235 230 222 224 220 228 251 255 248 241 224 223 208 211 185 191 200 212 202 195 192 184 199 224 252 272 273 271 269 202 147 131 128 114 109
10 320 249 233 226 223 216 223 226 235 260 247 249 221 225 225 207 191 206 185 175 181 162 150 153 169 339 338 317 290 263 138 123 128 127 119 119 159
7 20 354 330 263 228 217 220 219 215 245 255 261 223 223 218 206 182 139 143 142 167 157 155 130 91 45 48 112 113 114 120 125 123 119 121 136 163
350 16 33 344 322 359 310 232 226 236 243 255 249 230 215 208 176 159 150 147 165 164 117 89 88 111 107 110 111 113 117 118 113 113 115 114 104 333
8 347 349 343 0 320 312 348 3 354 280 252 259 252 198 170 123 117 152 120 103 115 103 120 131 134 119 126 125 121 121 116 115 116 120 116 115 262
347 330 319 336 307 341 300 333 328 330 353 343 317 255 221 63 305 181 177 251 139 167 118 159 142 128 126 134 130 129 130 128 130 132 127 142 167 223
305 294 295 283 283 315 293 352 316 327 261 15 31 272 51 276 87 300 313 118 38 88 76 123 132 131 133 125 131 134 139 136 131 139 150 173 194 202
321 318 306 314 349 336 340 284 265 271 302 329 334 288 7 33 15 330 160 238 170 116 65 58 39 24 102 99 135 144 145 145 137 161 172 195 211 199
337 336 353 11 16 355 343 324 309 297 253 285 275 294 331 182 79 297 255 278 221 143 102 130 89 137 355 128 151 149 165 155 162 179 187 204 209 187
334 339 342 337 359 360 345 336 341 344 346 334 333 341 326 335 263 203 162 82 344 70 137 123 335 70 154 178 163 162 175 173 173 190 213 236 203 167
312 322 322 327 340 336 337 333 331 310 309 339 344 304 277 289 273 46 142 108 276 269 84 105 124 87 341 270 124 167 175 181 178 186 197 218 169 137
317 307 286 292 315 335 333 330 318 306 314 325 310 324 295 285 287 239 186 198 162 275 193 137 150 154 157 139 79 94 140 170 93 21 177 141 132 115
311 312 299 297 302 307 298 290 280 287 306 307 300 297 300 307 260 261 271 193 184 243 167 119 127 137 80 135 139 152 157 119 86 49 68 89 97 101
303 298 294 297 303 301 297 280 275 280 274 282 283 283 283 285 264 194 268 301 316 188 167 137 124 157 136 133 153 147 125 124 111 79 67 66 72 75
287 287 292 293 287 282 267 271 282 277 267 272 276 254 208 213 147 230 81 74 46 9 117 115 127 134 145 140 142 149 132 89 89 94 88 68 66 46
294 289 279 269 274 275 281 269 258 262 255 257 262 262 168 162 196 157 121 109 75 48 35 110 132 133 114 127 135 138 125 136 116 98 96 69 59 57
299 297 300 295 295 288 265 258 241 254 266 262 264 255 212 186 178 147 134 109 116 134 109 73 81 80 75 124 117 120 117 113 112 113 97 89 60 45
299 297 297 295 286 281 278 280 265 249 253 250 258 252 222 193 169 118 97 148 141 134 136 138 121 105 94 59 67 117 112 109 107 95 95 96 71 32
301 299 289 284 283 281 274 268 271 267 263 253 255 240 216 193 161 156 164 146 142 149 144 146 145 142 125 113 93 65 120 105 104 77 70 65 89 55
291 290 290 288 285 283 276 271 265 262 256 257 255 238 201 183 169 163 158 151 152 140 133 125 120 125 128 125 111 88 95 111 111 107 101 93 87 81
290 284 286 285 280 274 278 272 256 250 249 249 240 217 194 177 169 154 145 143 142 139 120 95 92 103 109 101 92 98 91 98 106 116 123 94 83 60
288 284 282 281 279 280 276 271 263 246 240 240 231 201 181 169 154 144 142 140 140 121 108 113 112 110 111 112 113 116 117 106 103 81 57 65 152 125
300 291 286 282 275 276 272 265 257 256 239 232 203 178 162 149 136 132 131 121 123 121 121 113 103 101 105 110 116 114 111 106 99 86 71 91 89 87